Tracking 19246 objects as of 21-Sep-2018
HD Live streaming from Space Station
objects crossing your sky now

FENGYUN 1C DEB

Track FENGYUN 1C DEB now!
10-day predictions


NORAD ID: 31415
Int'l Code: 1999-025BTB
Perigee: 784.1 km
Apogee: 889.8 km
Inclination: 99.7 °
Period: 101.5 minutes
Semi major axis: 7207 km
RCS: 0.0149 m2 (small)
Launch date: May 10, 1999
Source: People's Republic of China (PRC)
Launch site: Taiyaun Space Center, China (TSC)

Note: This is SATELLITE DEBRIS
aabbcc
Your satellite tracking list
Your tracking list is empty




NASA's NSSDC Master Catalog

Two Line Element Set (TLE):
1 31415U 99025BTB 18260.54026596 +.00000422 +00000-0 +22282-3 0  9990
2 31415 099.6774 290.7676 0073355 293.7516 065.5975 14.18682206252689
Source of the keplerian elements: AFSPC